#timestamp,LO_Frequency,Hit,StdDev 
1618147655.7,286046970.9,P
1618147675.6,286046973.8,P
1618147695.4,286046973.3,P
1618147715.2,286046973.7,Y
1618147735.1,286046998.5,P
1618147736.0,286046998.5,N
1618147755.8,286047000.9,N
1618147775.6,286046999.3,N
1618147795.5,286046998.6,N
1618147815.3,286046998.4,N
1618147835.2,286046998.6,N
1618147855.9,286046998.7,N
1618147875.7,286047000.8,N
1618147895.6,286047000.5,N
1618147915.4,286047000.0,N
1618147935.2,286047000.7,N
1618147955.1,286047000.9,N
1618147956.0,286047000.9,N
1618147975.8,286047000.7,N
1618147995.7,286047001.0,N
1618148015.5,286047000.9,N
1618148035.3,286047000.6,N
1618148055.2,286047001.0,N
1618148075.0,286047000.5,N
1618148075.9,286047000.5,N
1618148095.7,286047000.3,N
1618148115.6,286047002.8,N
1618148135.4,286047001.7,N
1618148155.3,286047001.7,N
1618148175.1,286047003.9,N
1618148176.0,286047003.9,N
1618148195.8,286047005.7,N
1618148215.7,286047007.1,N
1618148235.5,286047006.9,N
1618148255.4,286047007.0,Y
1618148275.2,286047003.0,P
1618148295.0,286047003.2,P
1618148295.9,286047003.2,P
1618148315.8,286047004.2,Y
1618148335.6,286047002.2,P
1618148355.5,286047002.1,P
1618148375.3,286047002.1,P
1618148395.1,286047002.7,Y
1618148415.9,286047000.2,P
1618148435.7,286047000.4,N
1618148455.5,286046998.6,N
1618148475.4,286046999.4,N
1618148495.2,286046996.5,N
1618148515.1,286046997.1,N
1618148516.0,286046997.1,N
1618148535.8,286046999.1,N
1618148555.6,286046999.3,N
1618148575.5,286046997.3,N
1618148595.3,286046999.5,N
1618148615.1,286046997.3,N
1618148635.9,286046996.6,N
1618148655.7,286046996.5,N
1618148675.6,286046997.2,N
1618148695.4,286046995.3,N
1618148715.2,286046997.5,N
1618148735.1,286046995.4,N
1618148736.0,286046995.4,N
1618148755.8,286046995.7,N
1618148775.6,286046996.3,N
1618148795.5,286046993.7,Y
1618148815.3,286046996.6,P
1618148835.2,286046997.2,P
1618148855.9,286046996.2,P
1618148875.7,286046995.8,Y
1618148895.6,286047001.2,P
1618148915.4,286046998.3,N
1618148935.3,286046998.9,N
1618148955.1,286046999.4,N
1618148956.0,286046999.4,N
1618148975.8,286046999.5,N
1618148995.7,286046996.7,N
1618149015.5,286046996.6,N
1618149035.3,286046999.2,N
1618149055.2,286046996.8,N
1618149075.0,286046995.0,Y
1618149075.9,286046995.0,P
1618149095.8,286046999.7,N
1618149115.6,286046998.6,N
1618149135.4,286047000.7,N
1618149155.3,286047001.0,N
1618149175.1,286046999.8,N
1618149195.8,286046999.8,N
1618149215.7,286047000.4,N
1618149235.5,286047000.1,N
1618149255.4,286047002.3,N
1618149275.2,286047002.1,N
1618149295.0,286047002.1,N
1618149295.9,286047002.1,N
1618149315.8,286047002.0,N
1618149335.6,286047001.9,N
1618149355.4,286047000.3,N
1618149375.3,286047000.1,N
1618149395.1,286047000.5,N
1618149415.9,286047000.0,N
1618149435.7,286047002.8,N
1618149455.5,286046999.9,N
1618149475.4,286047000.2,N
1618149495.2,286047001.6,N
1618149515.0,286047002.5,N
1618149516.0,286047002.5,N
1618149535.8,286047001.8,N
1618149555.6,286047003.8,N
1618149575.5,286047003.4,N
1618149595.3,286047004.0,N
